Find Kosmos-2065

NORAD ID: 20550 Int'l Des: 1990-029 Owner: UNKS Country: SU operational
LEOCIRCULAR

リアルタイム位置

3D地球を読み込み中...

Kosmos-2065について

説明を読み込み中...

次回通過

Passes for default location (London). Set your location on the main map for personalized predictions.

高度履歴

Loading altitude history...

軌道要素

1 20550U 90029B 26107.19296480 -.00000009 00000-0 43347-4 0 9992
2 20550 73.9853 20.0077 0007724 71.7061 0.9840 12.49205109643093
Epoch: Apr 17, 2026 • Age: 12 hours

現在のステータス

高度 1469.8 km
速度 7.13 km/s
衛星直下点 29.61°N, 95.64°E
打ち上げ日 Apr 6, 1990
運用期間 36 years
タイプ other

技術仕様

分類 Payload
質量 60.00 kg
乾燥質量 60.00 kg
総質量 60.00 kg
長さ 0.80 m
直径 0.80 m
スパン 0.80 m
形状 Poly
製造者 NPOPM
バスタイプ Strela-1 11F625
フェーズステータス In Orbit
所有者/国 UNKS/SU

Most Searched